Location: Nairn
(57.5833°N, 3.8667°W)
Time: 02:40:33
(UTC+00:00)

Tiros 1 despin weight - Pass Details

Date: 26 November 2020
Orbit: 594 x 641 km, 48.2° (Epoch: 22 January)

Event Time Altitude Azimuth Distance (km) Brightness Sun altitude
Rises 17:05:12 0° 258° (WSW) 2,944 ? -10.3°
Reaches altitude 10° 17:07:54 10° 245° (WSW) 2,031 ? -10.7°
Maximum altitude 17:11:35 23° 193° (SSW) 1,349 ? -11.1°
Drops below altitude 10° 17:15:14 10° 141° (SE) 2,014 ? -11.6°
Sets 17:17:54 0° 127° (SE) 2,913 ? -11.9°
